Powrót do katalogu

YAOGAN 11 DEB

AktywnyMilitariaSSO
NORAD 38175·DEBRIS·🇨🇳 China

Wystrzelony Sep 22, 2010 z Jiuquan Satellite Launch Center

Loading…

Następne Przeloty (najbliższe 24 godziny)

TLE

ŚwieżeSource: Space-Track

Epoka: Sep 13, 2026, 04:20 UTC

1 38175U 10047E   26256.18076085  .00001079  00000-0  26541-3 0  9990
2 38175  98.0913 336.7204 0165938 329.9998  29.1765 14.46336769275690

Śledź YAOGAN 11 DEB w czasie rzeczywistym z AllMySat

Download on the App Store